Location: Hamayl? Da??
(36.7028°N, 30.1716°E)
Time: 00:07:27
(UTC+00:00)

Vanguard 1 - Pass Details

Date: 22 December 2025
Orbit: 651 x 3820 km, 34.2° (Epoch: 15 January)

Event Time Altitude Azimuth Distance (km) Brightness Sun altitude
Rises 03:24:36 0° 212° (SSW) 3,544 12.8 -20.1°
Reaches altitude 10° 03:28:26 10° 190° (S) 2,280 12.0 -19.4°
Maximum altitude 03:31:18 15° 154° (SSE) 1,790 11.9 -18.8°
Drops below altitude 10° 03:33:56 10° 117° (ESE) 2,049 12.9 -18.3°
Sets 03:37:03 0° 93° (E) 2,983 14.1 -17.7°
